Weather History for KCVX - February, 2013

Change the Weather History Date:

Friday, February 15, 2013

  Actual Average Record
Temperature  
Mean Temperature 20 °F -  
Max Temperature 24 °F 31 °F 41 °F (2002)
Min Temperature 17 °F 15 °F -14 °F (2015)
Degree Days  
Heating Degree Days 44    
Moisture  
Dew Point 12 °F    
Average Humidity 69    
Maximum Humidity 85    
Minimum Humidity 57    
Precipitation  
Precipitation 0.00 in - - ()
Sea Level Pressure  
Sea Level Pressure 30.03 in    
Wind  
Wind Speed 15 mph (NW)    
Max Wind Speed 20 mph    
Max Gust Speed 32 mph    
Visibility 8 miles    
Events Snow    
Averages and records for this station are not official NWS values.
T = Trace of Precipitation, MM = Missing Value Source: NWS Daily Summary

Daily Weather History Graph

Daily Weather History Graph

Search for Another Location

Airport or City:

Trip Planner

Search our weather history database for the weather conditions in past years. The results will help you decide how hot, cold, wet, or windy it might be!

Date:

Astronomy

Feb. 15, 2013 Rise Set
Actual Time 7:42 AM EST 6:08 PM EST
Civil Twilight 7:11 AM EST 6:39 PM EST
Nautical Twilight 6:37 AM EST 7:13 PM EST
Astronomical Twilight 6:03 AM EST 7:48 PM EST
Moon 9:59 AM EST (2/15) No Moon Set
Length of Visible Light 11h 27m
Length of Day
10h 26m
Waxing Crescent, 30% of the Moon is Illuminated
Feb 15
Waxing Crescent
Feb 17
First Quarter
Feb 25
Full
Mar 4
Last Quarter
Mar 11
New

Hourly Weather History & Observations

Time (EST) Temp. Windchill Dew Point Humidity Pressure Visibility Wind Dir Wind Speed Gust Speed Precip Events Conditions
12:14 AM 24.6 °F 11.3 °F 17.6 °F 75% 29.87 in 7.0 mi NW 17.3 mph 25.3 mph N/A   Overcast
12:34 AM 24.6 °F 10.9 °F 18.3 °F 77% 29.87 in 10.0 mi NW 18.4 mph 26.5 mph N/A   Overcast
12:55 AM 24.4 °F 10.6 °F 17.4 °F 75% 29.88 in 10.0 mi NW 18.4 mph 25.3 mph N/A   Overcast
1:14 AM 23.9 °F 10.3 °F 14.9 °F 69% 29.88 in 7.0 mi NNW 17.3 mph 32.2 mph N/A   Overcast
1:35 AM 23.9 °F 11.2 °F 15.6 °F 71% 29.89 in 10.0 mi NW 15.0 mph 23.0 mph N/A   Overcast
1:54 AM 23.7 °F 11.5 °F 16.2 °F 73% 29.89 in 10.0 mi NNW 13.8 mph 21.9 mph N/A   Overcast
2:15 AM 23.2 °F 9.8 °F 15.1 °F 71% 29.90 in 7.0 mi NNW 16.1 mph 23.0 mph N/A   Overcast
2:34 AM 23.0 °F 8.7 °F 14.9 °F 71% 29.91 in 5.0 mi NW 18.4 mph 25.3 mph N/A Snow Light Snow
2:55 AM 22.3 °F 9.2 °F 14.4 °F 72% 29.92 in 7.0 mi NNW 15.0 mph 23.0 mph N/A Snow Light Snow
3:14 AM 22.1 °F 8.5 °F 12.9 °F 68% 29.93 in 7.0 mi NNW 16.1 mph 25.3 mph N/A   Overcast
3:35 AM 21.9 °F 6.9 °F 12.6 °F 67% 29.93 in 10.0 mi NW 19.6 mph 27.6 mph N/A   Overcast
3:54 AM 21.7 °F 8.5 °F 12.6 °F 68% 29.93 in 10.0 mi NNW 15.0 mph 25.3 mph N/A   Overcast
4:14 AM 21.4 °F 6.6 °F 12.4 °F 68% 29.94 in 10.0 mi NW 18.4 mph 27.6 mph N/A   Overcast
4:35 AM 21.2 °F 6.0 °F 11.5 °F 66% 29.94 in 10.0 mi NW 19.6 mph 27.6 mph N/A   Overcast
4:54 AM 21.6 °F 6.9 °F 12.4 °F 68% 29.95 in 10.0 mi NNW 18.4 mph 25.3 mph N/A   Overcast
5:15 AM 21.2 °F 7.8 °F 12.2 °F 68% 29.96 in 10.0 mi NW 15.0 mph 23.0 mph N/A   Overcast
5:35 AM 21.0 °F 6.6 °F 11.8 °F 68% 29.97 in 10.0 mi NNW 17.3 mph 25.3 mph N/A   Overcast
5:54 AM 21.2 °F 7.3 °F 12.2 °F 68% 29.97 in 10.0 mi NNW 16.1 mph 21.9 mph N/A   Overcast
6:15 AM 21.0 °F 8.1 °F 12.4 °F 69% 29.98 in 10.0 mi NNW 13.8 mph 21.9 mph N/A   Overcast
6:34 AM 21.0 °F 9.3 °F 12.9 °F 71% 29.98 in 10.0 mi NNW 11.5 mph 20.7 mph N/A   Overcast
6:55 AM 20.7 °F 7.1 °F 12.6 °F 71% 29.99 in 10.0 mi North 15.0 mph 20.7 mph N/A   Overcast
7:11 AM 20.7 °F 8.8 °F 12.4 °F 70% 30.00 in 10.0 mi NNW 11.5 mph 18.4 mph N/A   Overcast
7:34 AM 21.0 °F 7.1 °F 13.1 °F 71% 30.01 in 10.0 mi NNW 16.1 mph 23.0 mph N/A   Overcast
7:54 AM 21.0 °F 8.1 °F 12.9 °F 71% 30.01 in 10.0 mi NNW 13.8 mph 18.4 mph N/A   Overcast
8:15 AM 21.0 °F 9.3 °F 12.7 °F 70% 30.02 in 10.0 mi NNW 11.5 mph 16.1 mph N/A   Overcast
8:35 AM 20.8 °F 7.9 °F 13.1 °F 72% 30.03 in 7.0 mi NW 13.8 mph - N/A Snow Light Snow
8:54 AM 20.8 °F 8.4 °F 13.3 °F 73% 30.04 in 10.0 mi NW 12.7 mph 18.4 mph N/A   Overcast
9:15 AM 21.2 °F 9.5 °F 13.6 °F 73% 30.04 in 7.0 mi NNW 11.5 mph - N/A Snow Light Snow
9:35 AM 21.2 °F 10.1 °F 14.5 °F 75% 30.05 in 4.0 mi NW 10.4 mph 17.3 mph N/A Snow Light Snow
9:54 AM 21.2 °F 10.9 °F 13.5 °F 72% 30.05 in 4.0 mi NW 9.2 mph - N/A Snow Light Snow
10:15 AM 21.7 °F 7.5 °F 12.4 °F 67% 30.05 in 7.0 mi NW 17.3 mph - N/A Snow Light Snow
10:34 AM 21.9 °F 9.8 °F 11.8 °F 65% 30.05 in 10.0 mi NW 12.7 mph - N/A   Overcast
10:55 AM 22.1 °F 10.6 °F 11.8 °F 65% 30.06 in 10.0 mi NNW 11.5 mph - N/A   Overcast
11:15 AM 22.1 °F 10.0 °F 11.3 °F 63% 30.07 in 10.0 mi NW 12.7 mph 18.4 mph N/A   Overcast
11:34 AM 21.9 °F 10.4 °F 14.4 °F 73% 30.07 in 7.0 mi NNW 11.5 mph 19.6 mph N/A Snow Light Snow
11:55 AM 22.1 °F 12.0 °F 13.8 °F 70% 30.07 in 5.0 mi WNW 9.2 mph - N/A Snow Light Snow
12:14 PM 22.1 °F 10.6 °F 15.4 °F 76% 30.07 in 4.0 mi WNW 11.5 mph - N/A Snow Light Snow
12:55 PM 22.1 °F 10.6 °F 13.5 °F 69% 30.07 in 7.0 mi WNW 11.5 mph - N/A Snow Light Snow
1:14 PM 22.5 °F 11.1 °F 11.8 °F 64% 30.07 in 10.0 mi WNW 11.5 mph - N/A   Overcast
1:35 PM 22.5 °F 11.1 °F 14.2 °F 71% 30.07 in 4.0 mi NW 11.5 mph 18.4 mph N/A Snow Light Snow
1:55 PM 22.1 °F 9.5 °F 16.0 °F 77% 30.07 in 3.0 mi West 13.8 mph - N/A Snow Light Snow
2:14 PM 22.1 °F 10.6 °F 16.2 °F 78% 30.07 in 3.0 mi WNW 11.5 mph - N/A Snow Light Snow
2:35 PM 21.9 °F 9.2 °F 16.7 °F 80% 30.07 in 2.0 mi WNW 13.8 mph 18.4 mph N/A Snow Light Snow
2:55 PM 22.3 °F 10.8 °F 16.3 °F 78% 30.06 in 4.0 mi West 11.5 mph 18.4 mph N/A Snow Light Snow
3:14 PM 21.7 °F 9.0 °F 17.6 °F 84% 30.07 in 0.5 mi West 13.8 mph 23.0 mph N/A Snow Snow
3:35 PM 21.0 °F 9.9 °F 17.1 °F 85% 30.07 in 0.8 mi WNW 10.4 mph - N/A Snow Light Snow
3:55 PM 21.9 °F 11.0 °F 14.5 °F 73% 30.07 in 5.0 mi WNW 10.4 mph 18.4 mph N/A Snow Light Snow
4:14 PM 22.1 °F 11.3 °F 12.2 °F 66% 30.07 in 10.0 mi NW 10.4 mph - N/A   Overcast
4:35 PM 21.9 °F 11.0 °F 12.7 °F 68% 30.08 in 10.0 mi WNW 10.4 mph 17.3 mph N/A   Overcast
4:55 PM 22.1 °F 10.6 °F 12.9 °F 68% 30.08 in 7.0 mi WNW 11.5 mph 17.3 mph N/A Snow Light Snow
5:14 PM 21.7 °F 8.5 °F 12.2 °F 67% 30.08 in 7.0 mi NW 15.0 mph 19.6 mph N/A   Overcast
5:35 PM 21.6 °F 9.9 °F 11.5 °F 65% 30.09 in 5.0 mi NW 11.5 mph 17.3 mph N/A Snow Light Snow
5:54 PM 21.2 °F 8.3 °F 11.1 °F 65% 30.10 in 5.0 mi NNW 13.8 mph 23.0 mph N/A   Haze
6:14 PM 21.0 °F 9.3 °F 10.4 °F 64% 30.10 in 7.0 mi NNW 11.5 mph 18.4 mph N/A   Overcast
6:35 PM 20.5 °F 6.4 °F 10.8 °F 66% 30.10 in 7.0 mi NNW 16.1 mph 23.0 mph N/A   Overcast
6:54 PM 20.3 °F 6.6 °F 9.7 °F 64% 30.12 in 7.0 mi NW 15.0 mph 21.9 mph N/A   Overcast
7:14 PM 19.9 °F 7.3 °F 9.1 °F 63% 30.12 in 7.0 mi North 12.7 mph 18.4 mph N/A   Overcast
7:34 PM 20.3 °F 8.3 °F 8.1 °F 59% 30.12 in 10.0 mi NW 11.5 mph - N/A   Overcast
7:54 PM 20.3 °F 9.0 °F 7.7 °F 58% 30.12 in 10.0 mi NW 10.4 mph 21.9 mph N/A   Overcast
8:15 PM 20.3 °F 9.0 °F 7.5 °F 58% 30.12 in 10.0 mi NNW 10.4 mph 18.4 mph N/A   Overcast
8:34 PM 19.8 °F 7.7 °F 6.6 °F 57% 30.12 in 10.0 mi North 11.5 mph 17.3 mph N/A   Overcast
8:54 PM 19.6 °F 8.9 °F 6.6 °F 57% 30.12 in 10.0 mi NNW 9.2 mph - N/A   Overcast
9:14 PM 19.4 °F 6.0 °F 6.8 °F 58% 30.12 in 10.0 mi North 13.8 mph 17.3 mph N/A   Overcast
9:34 PM 18.9 °F 6.5 °F 8.6 °F 64% 30.12 in 10.0 mi North 11.5 mph - N/A   Overcast
9:54 PM 18.5 °F 7.5 °F 9.9 °F 69% 30.12 in 10.0 mi NNW 9.2 mph 16.1 mph N/A   Overcast
10:14 PM 17.8 °F 5.9 °F 9.1 °F 69% 30.12 in 10.0 mi North 10.4 mph 17.3 mph N/A   Overcast
10:35 PM 17.6 °F 5.0 °F 8.2 °F 67% 30.12 in 10.0 mi NNW 11.5 mph 18.4 mph N/A   Overcast
10:54 PM 17.6 °F 7.3 °F 6.8 °F 63% 30.12 in 10.0 mi NNW 8.1 mph - N/A   Overcast
11:15 PM 17.6 °F 5.7 °F 6.1 °F 61% 30.12 in 10.0 mi NW 10.4 mph - N/A   Overcast
11:34 PM 17.6 °F 5.7 °F 6.6 °F 62% 30.12 in 10.0 mi NNW 10.4 mph - N/A   Overcast
11:55 PM 17.6 °F 6.4 °F 4.6 °F 57% 30.11 in 10.0 mi NNW 9.2 mph - N/A   Overcast